Regional Weather Roundup
Issued by NWS

Home | Current Version | Previous Version | Graphics & Text | Print | Product List | Glossary On
Versions: 1 2 3 4 5 6 7 8 9 10 11 12 13 14 15 16 17 18 19 20 21 22 23 24 25 26 27 28 29 30 31 32 33 34 35 36 37 38 39 40 41 42 43 44 45 46 47 48 49 50
000
ASUS43 KBIS 031710
RWRND

NORTH DAKOTA REGIONAL WEATHER ROUNDUP
NATIONAL WEATHER SERVICE BISMARCK ND
1200 PM CDT THU SEP 03 2015

NOTE: "FAIR" INDICATES FEW OR NO CLOUDS BELOW 12,000 FEET WITH NO
SIGNIFICANT WEATHER AND/OR OBSTRUCTIONS TO VISIBILITY.


NDZ001>003-009>011-017-031800-
NORTHWEST NORTH DAKOTA

CITY           SKY/WX    TMP DP  RH WIND       PRES   REMARKS
WILLISTON      MOSUNNY   80  62  54 NE7       29.70R
MINOT          SUNNY     83  68  60 SE10      29.64F
MINOT AFB      MOSUNNY   83  75  76 SE10G20   29.64F HX  90
$$

NDZ018>021-031>035-040>046-031800-
SOUTHWEST NORTH DAKOTA

CITY           SKY/WX    TMP DP  RH WIND       PRES   REMARKS
BISMARCK       SUNNY     86  64  47 SE8       29.69F
DICKINSON      SUNNY     85  47  26 W7        29.70R
GARRISON         N/A     82  66  58 S10       29.67F
HETTINGER ARPT SUNNY     88  45  22 W9        29.74S
$$

NDZ004>008-012>016-024-026-027-054-031800-
NORTHEAST NORTH DAKOTA

CITY           SKY/WX    TMP DP  RH WIND       PRES   REMARKS
GRAND FORKS    MOSUNNY   83  71  67 S17       29.75F
GRND FRKS AFB  CLOUDY    77  70  79 S22G28    29.76S
DEVILS LAKE    PTSUNNY   79  66  65 SE20      29.71F
$$

NDZ022-023-025-028>030-036>039-047>053-031800-
SOUTHEAST NORTH DAKOTA

CITY           SKY/WX    TMP DP  RH WIND       PRES   REMARKS
FARGO          SUNNY     85  71  63 SE20G30   29.78F HX  90
JAMESTOWN      SUNNY     83  70  64 SE15G23   29.74S
$$



USA.gov is the U.S. government's official web portal to all federal, state and local government web resources and services.